User: anonymous   Login
Location: Bowman Observatory
(41.0326°N, 73.6210°W)
Time: 23:18:00
(UTC-04:00)
Language:

Cosmos 2298 Rocket - Orbit

View from above orbital plane
View from above orbital plane
View from above satellite
View from above satellite

Ground track
Ground track

The orbit data is extracted from the following two-line orbital elements,

1 23432U 94083B   16271.86641684  .00000027  00000-0  19294-4 0  9996
2 23432  74.0323  57.6539 0005977 320.9173 204.5367 14.33453116138711
Epoch (UTC): 27 September 2016 20:47:38
Eccentricity: 0.0005977
inclination: 74.0323°
perigee height: 776 km
apogee height: 784 km
right ascension of ascending node: 57.6539°
argument of perigee: 320.9173°
revolutions per day: 14.33453116
mean anomaly at epoch: 204.5367°
orbit number at epoch: 13871

The dashed part of the orbit path shows where the satellite is in the earth's shadow,  

DLR